sat.trackr.live / text

‹ back to catalog

STARLINK-30887

NORAD 58394 · 2023-178W

PAYLOAD ACTIVE UNKNOWN

§ Identity

Operator
Country
US
Launch date
2023-11-20
Launch site
AFWTR
Launch vehicle
Mass (kg)
RCS (m²)

Purposes: comms

External: N2YO · Heavens-Above · Gunter

§ Orbital elements

Epoch: 2026-09-19T06:16:30.353952Z

Period
93.85 min
Inclination
53.1609°
Eccentricity
0.0001357
Mean motion
15.34394688 rev/d
Perigee alt
461.8 km
Apogee alt
463.6 km
Semi-major
6,840.9 km
B*
7.6785e-6
RAAN
177.8375°
Arg perigee
105.4292°
Mean anomaly
254.6860°
Rev number
15,956

§ Raw data

STARLINK-308871 58394U 23178W   26262.26146243 -.00000117  00000+0  76785-5 0  99932 58394  53.1609 177.8375 0001357 105.4292 254.6860 15.34394688159560

JSON: /api/v1/satellites/58394 · /tle

For live sub-satellite position, see the globe view (requires WebGL).

§ Visibility from observer

Set your observer location to see the next 7 days of passes ≥ 10°. The values pass through the URL so the page stays shareable.

No JS? Fill the form by hand. The geolocation button needs JavaScript.